When you browse on this site, cookies collect data to enhance your experience and personalize the content and advertising you see.
Visit our Privacy Policy to learn more. By continuing to use the site, you agree to this use of cookies and data.
  • In Austria
  • List of Countries
  • For 7 days
  • Water Temperature
  • Weather Map
  • News
  • Weather Widgets
  • user-avatar
    Login

    Hourly Weather Ozernyy

    Today, 25 August, Sunday

    Time Temperature Precipitation Wind Pressure Humidity
    00:00 +15°C° 0 mm 1 mps 757 mmHg 80%
    01:00 +14°C° 0 mm 1 mps 757 mmHg 82%
    02:00 +14°C° 0 mm 1 mps 758 mmHg 85%
    03:00 +14°C° 0 mm 1 mps 758 mmHg 86%
    04:00 +14°C° 0 mm 1 mps 758 mmHg 87%
    05:00 +14°C° 0 mm 1 mps 758 mmHg 88%
    06:00 +15°C° 0 mm 1 mps 758 mmHg 81%
    07:00 +18°C° 0 mm 1 mps 758 mmHg 75%
    08:00 +20°C° 0 mm 1 mps 758 mmHg 68%
    09:00 +22°C° 0 mm 1 mps 758 mmHg 62%
    10:00 +24°C° 0 mm 1 mps 758 mmHg 56%
    11:00 +26°C° 0 mm 1 mps 758 mmHg 51%
    12:00 +26°C° 0 mm 1 mps 758 mmHg 48%
    13:00 +27°C° 0 mm 1 mps 758 mmHg 46%
    14:00 +28°C° 0 mm 1 mps 758 mmHg 43%
    15:00 +27°C° 0 mm 1 mps 757 mmHg 47%
    16:00 +27°C° 0 mm 2 mps 757 mmHg 50%
    17:00 +27°C° 0 mm 2 mps 757 mmHg 54%
    18:00 +25°C° 0 mm 2 mps 757 mmHg 61%
    19:00 +23°C° 0 mm 2 mps 757 mmHg 68%
    20:00 +20°C° 0 mm 2 mps 758 mmHg 74%
    21:00 +19°C° 0 mm 2 mps 758 mmHg 79%
    22:00 +18°C° 0 mm 2 mps 758 mmHg 83%
    23:00 +17°C° 0 mm 2 mps 758 mmHg 87%

    Tomorrow, 26 August, Monday

    Time Temperature Precipitation Wind Pressure Humidity
    00:00 +17°C° 0 mm 2 mps 758 mmHg 88%
    01:00 +17°C° 0 mm 2 mps 758 mmHg 90%
    02:00 +16°C° 0 mm 2 mps 758 mmHg 92%
    03:00 +16°C° 0 mm 2 mps 758 mmHg 93%
    04:00 +16°C° 0 mm 2 mps 758 mmHg 93%
    05:00 +15°C° 0 mm 2 mps 758 mmHg 94%
    06:00 +17°C° 0 mm 2 mps 758 mmHg 88%
    07:00 +19°C° 0 mm 2 mps 758 mmHg 83%
    08:00 +20°C° 0 mm 2 mps 758 mmHg 77%
    09:00 +23°C° 0 mm 2 mps 758 mmHg 70%
    10:00 +24°C° 0 mm 2 mps 758 mmHg 64%
    11:00 +26°C° 0 mm 2 mps 758 mmHg 57%
    12:00 +27°C° 0 mm 2 mps 758 mmHg 55%
    13:00 +27°C° 0 mm 2 mps 758 mmHg 53%
    14:00 +28°C° 0 mm 2 mps 757 mmHg 50%
    15:00 +28°C° 0 mm 1 mps 757 mmHg 53%
    16:00 +27°C° 0 mm 1 mps 757 mmHg 55%
    17:00 +27°C° 0 mm 1 mps 756 mmHg 57%
    18:00 +25°C° 0 mm 1 mps 756 mmHg 63%
    19:00 +23°C° 0 mm 1 mps 756 mmHg 69%
    20:00 +21°C° 0 mm 1 mps 756 mmHg 76%
    21:00 +20°C° 0 mm 1 mps 756 mmHg 78%
    22:00 +20°C° 0 mm 1 mps 756 mmHg 80%
    23:00 +19°C° 0 mm 1 mps 757 mmHg 83%

    Day after tomorrow, 27 August, Tuesday

    Time Temperature Precipitation Wind Pressure Humidity
    00:00 +19°C° 0 mm 1 mps 757 mmHg 84%
    01:00 +18°C° 0 mm 1 mps 757 mmHg 85%
    02:00 +18°C° 0 mm 1 mps 756 mmHg 87%
    03:00 +16°C° 0 mm 1 mps 756 mmHg 88%
    04:00 +16°C° 0 mm 1 mps 756 mmHg 88%
    05:00 +16°C° 0 mm 1 mps 756 mmHg 89%
    06:00 +18°C° 0 mm 1 mps 756 mmHg 82%
    07:00 +20°C° 0 mm 1 mps 757 mmHg 76%
    08:00 +22°C° 0 mm 1 mps 757 mmHg 69%
    09:00 +24°C° 0 mm 1 mps 757 mmHg 64%
    10:00 +25°C° 0 mm 1 mps 757 mmHg 59%
    11:00 +27°C° 0 mm 1 mps 757 mmHg 54%
    12:00 +27°C° 0 mm 1 mps 756 mmHg 52%
    13:00 +28°C° 0 mm 1 mps 756 mmHg 50%
    14:00 +28°C° 0 mm 1 mps 756 mmHg 48%
    15:00 +28°C° 0 mm 2 mps 756 mmHg 51%
    16:00 +27°C° 0 mm 2 mps 756 mmHg 55%
    17:00 +27°C° 0 mm 2 mps 755 mmHg 58%
    18:00 +25°C° 0 mm 2 mps 755 mmHg 63%
    19:00 +23°C° 0 mm 1 mps 756 mmHg 69%
    20:00 +21°C° 0 mm 1 mps 756 mmHg 74%
    21:00 +20°C° 0 mm 1 mps 756 mmHg 76%
    22:00 +20°C° 0 mm 1 mps 756 mmHg 79%
    23:00 +19°C° 0 mm 1 mps 756 mmHg 81%

    28 August, Wednesday

    Time Temperature Precipitation Wind Pressure Humidity
    00:00 +19°C° 0 mm 1 mps 756 mmHg 84%
    01:00 +18°C° 0 mm 1 mps 756 mmHg 87%
    02:00 +18°C° 0 mm 1 mps 756 mmHg 91%
    03:00 +18°C° 0 mm 1 mps 756 mmHg 92%
    04:00 +16°C° 0 mm 1 mps 756 mmHg 93%
    05:00 +16°C° 0 mm 1 mps 756 mmHg 93%
    06:00 +18°C° 0 mm 1 mps 756 mmHg 87%
    07:00 +20°C° 0 mm 1 mps 756 mmHg 81%
    08:00 +21°C° 0 mm 1 mps 756 mmHg 75%
    09:00 +23°C° 0 mm 2 mps 756 mmHg 68%
    10:00 +24°C° 0 mm 2 mps 756 mmHg 62%
    11:00 +26°C° 0 mm 2 mps 756 mmHg 55%
    12:00 +26°C° 0 mm 3 mps 756 mmHg 53%
    13:00 +27°C° 0 mm 3 mps 756 mmHg 50%
    14:00 +27°C° 0 mm 3 mps 756 mmHg 47%
    15:00 +26°C° 0 mm 3 mps 755 mmHg 49%
    16:00 +26°C° 0 mm 3 mps 755 mmHg 51%
    17:00 +25°C° 0 mm 3 mps 755 mmHg 53%
    18:00 +22°C° 0 mm 3 mps 755 mmHg 59%
    19:00 +20°C° 0 mm 3 mps 755 mmHg 66%
    20:00 +18°C° 0 mm 2 mps 755 mmHg 72%
    21:00 +17°C° 0 mm 3 mps 755 mmHg 74%
    22:00 +16°C° 0 mm 3 mps 756 mmHg 76%
    23:00 +16°C° 0 mm 3 mps 756 mmHg 79%

    29 August, Thursday

    Time Temperature Precipitation Wind Pressure Humidity
    00:00 +14°C° 0 mm 3 mps 756 mmHg 81%
    01:00 +14°C° 0 mm 2 mps 756 mmHg 83%
    02:00 +14°C° 0 mm 2 mps 756 mmHg 85%
    03:00 +13°C° 0 mm 2 mps 756 mmHg 85%
    04:00 +13°C° 0 mm 2 mps 756 mmHg 85%
    05:00 +12°C° 0 mm 2 mps 756 mmHg 85%
    06:00 +12°C° 0 mm 3 mps 756 mmHg 80%
    07:00 +14°C° 0 mm 3 mps 756 mmHg 75%
    08:00 +16°C° 0 mm 3 mps 756 mmHg 70%
    09:00 +18°C° 0 mm 3 mps 756 mmHg 65%
    10:00 +19°C° 0 mm 4 mps 756 mmHg 60%
    11:00 +21°C° 0 mm 4 mps 756 mmHg 55%
    12:00 +22°C° 0 mm 4 mps 756 mmHg 52%
    13:00 +22°C° 0 mm 4 mps 756 mmHg 50%
    14:00 +23°C° 0 mm 4 mps 755 mmHg 47%
    15:00 +23°C° 0 mm 4 mps 755 mmHg 47%
    16:00 +22°C° 0 mm 3 mps 755 mmHg 48%
    17:00 +22°C° 0 mm 3 mps 755 mmHg 49%
    18:00 +20°C° 0 mm 3 mps 755 mmHg 52%
    19:00 +17°C° 0 mm 3 mps 755 mmHg 55%
    20:00 +14°C° 0 mm 3 mps 755 mmHg 58%
    21:00 +14°C° 0 mm 3 mps 755 mmHg 60%
    22:00 +13°C° 0 mm 3 mps 755 mmHg 62%
    23:00 +12°C° 0 mm 3 mps 755 mmHg 64%

    30 August, Friday

    Time Temperature Precipitation Wind Pressure Humidity
    00:00 +12°C° 0 mm 3 mps 755 mmHg 67%
    01:00 +11°C° 0 mm 3 mps 755 mmHg 69%
    02:00 +11°C° 0 mm 3 mps 755 mmHg 72%
    03:00 +10°C° 0 mm 3 mps 755 mmHg 74%
    04:00 +10°C° 0 mm 3 mps 755 mmHg 76%
    05:00 +9°C° 0 mm 3 mps 755 mmHg 79%
    06:00 +11°C° 0 mm 3 mps 755 mmHg 73%
    07:00 +13°C° 0 mm 3 mps 755 mmHg 68%
    08:00 +14°C° 0 mm 3 mps 755 mmHg 63%
    09:00 +17°C° 0 mm 3 mps 755 mmHg 56%
    10:00 +20°C° 0 mm 3 mps 755 mmHg 50%
    11:00 +22°C° 0 mm 4 mps 756 mmHg 43%
    12:00 +22°C° 0 mm 3 mps 755 mmHg 42%
    13:00 +24°C° 0 mm 3 mps 755 mmHg 40%
    14:00 +25°C° 0 mm 3 mps 755 mmHg 38%
    15:00 +25°C° 0 mm 3 mps 755 mmHg 42%
    16:00 +24°C° 0 mm 3 mps 754 mmHg 45%
    17:00 +24°C° 0 mm 2 mps 754 mmHg 48%
    18:00 +21°C° 0 mm 2 mps 754 mmHg 54%
    19:00 +18°C° 0 mm 2 mps 754 mmHg 59%
    20:00 +16°C° 0 mm 2 mps 754 mmHg 64%
    21:00 +15°C° 0 mm 2 mps 754 mmHg 65%
    22:00 +15°C° 0 mm 2 mps 754 mmHg 66%
    23:00 +14°C° 0 mm 2 mps 754 mmHg 68%
    Show more